STARLINK-5158, 54055

Orbit data source: Space-Track

STARLINK-5158, 54055 is a payload satellite owned by SpaceX/Seattle (US) in LEO that was launched on Thu, 20 Oct 2022 UTC via an FALCON 9 launch vehicle from the Air Force Eastern Test Range (AFETR). Payload-class satellites include a variety of spacecraft equipped with specific instruments for various scientific and technological missions. These include communications satellites like Starlink; space stations such as the ISS; scientific satellites like the Hubble; Earth observation satellites from companies like Planet Labs, Umbra, and HawkEye 360; GPS; miniature CubeSats for education and research; and military/defense satellites.

Loading next visibility...
Identifier
54055, 2022-136E
Orbit
LEO
Country
Flag of USUS
Related business
Manufacturer
SpaceX/Seattle
Mission
Operational Commercial Communications
Bus & Motor
STARLINK, Unknown motor
Mass
305 kg wet, ~290 kg dry
Launch date (UTC)
2022-10-20 (3 years ago)
Launch vehicle
FALCON 9
Launch site
Air Force Eastern Test Range (AFETR)
Object type
Payload
Rocket body
Debris
Shape & HBR
Box + 1 Pan, 10.1 m
Radar Cross Section
13.562 m², Large (>1 m²)

Expand to show TLE details & history
Last TLE update: 7 hours ago

TLE from 7 hours ago
0 STARLINK-5158
1 54055U 22136E   25303.74017979  .00002682  00000-0  18648-3 0  9998
2 54055  53.2172 207.6528 0001611  92.9848 267.1328 15.08853893167227
Epoch: 2025-10-30T17:45Z
TLE epoch observation values (Epoch: 2025-10-30T17:45:51.533Z)
Latitude
-0.00009°
Longitude
-98.10661°
Altitude
540.654 km
Speed
7.593 km/s
True Right ascension
13h 50m 36s
True Declination
0° 00' 00"
Sunlit
Object was in daylight at epoch
Visualization orbit readout
Latitude
Unknown
Longitude
Unknown
Altitude
Unknown
Speed
Unknown
Apparent Right ascension
Unknown
Apparent Declination
Unknown
Sunlit
N/A
Visualization observer readout
Local Sidereal Time
20:16:58
Azimuth
Unknown
Elevation
Unknown
Doppler factor
Unknown
Orbital elements
Apogee altitude
541.06 km
Perigee altitude
538.831 km
Semi-major axis
6,918.083 km
Eccentricity
0.00016
Inclination
53.2172°
RAAN
207.6528°
Arg. of periapsis
92.9848°
True anomaly
267.11436°
Mean anomaly
267.1328°
Eccentric anomaly
267.12358°
Mean motion
3.77194 °/min
Orbital period
95.44 mins
BSTAR
0.00018648
Loading maneuver chart data...
Computing Atmospheric mass density...
Loading historical data...
Loading historical data...
Loading historical data...
Loading historical data...
Loading historical data...
Loading historical data...
Loading historical data...

Documentation

Showing up to 5 results
|